Regional Weather Roundup
Issued by NWS Tiyan, Guam

Home | Current Version | Previous Version | Text Only | Print | Product List | Glossary On
Versions: 1 2 3 4 5 6 7 8 9 10 11 12 13 14 15 16 17 18 19 20 21 22 23 24 25 26 27
000
ASGM40 PGUM 160412
RWRGUM
WEATHER ROUNDUP FOR THE MARIANAS
NATIONAL WEATHER SERVICE TIYAN GU
200 PM GSST WED APR 16 2014

GUZ001>004-160500-
MARIANA ISLANDS-

CITY           SKY/WX    TMP DP  RH WIND       PRES   REMARKS
GUAM AIRPORT   PTSUNNY   88  75  66 N12       29.76F HX  97
ANDERSEN AFB   PTSUNNY   84  77  79 NE10      29.77F HX  94
ROTA AIRPORT   MOSUNNY   84  77  79 NE10      29.79F HX  94
TINIAN AP      MOSUNNY   84  73  70 NE14      29.76F HX  91
SAIPAN AP      MOSUNNY   88  75  66 E16       29.77F HX  97

$$




USA.gov is the U.S. government's official web portal to all federal, state and local government web resources and services.